Regional Weather Roundup
Issued by NWS

Home | Current Version | Previous Version | Graphics & Text | Print | Product List | Glossary On
Versions: 1 2 3 4 5 6 7 8 9 10 11 12 13 14 15 16 17 18 19 20 21 22 23 24 25 26 27 28 29 30 31 32 33 34 35 36 37 38 39 40 41 42 43 44 45 46 47 48 49 50
980
ASUS43 KLSX 250510
RWRMO

WEATHER SUMMARY FOR MISSOURI
NATIONAL WEATHER SERVICE SPRINGFIELD MO
1200 AM CDT FRI MAY 25 2018

NOTE: "FAIR" INDICATES FEW OR NO CLOUDS BELOW 12,000 FEET WITH NO
       SIGNIFICANT WEATHER AND/OR OBSTRUCTIONS TO VISIBILITY.
       CURRENT SKY AND/OR WEATHER CONDITIONS ARE NOT AVAILABLE FOR
       CHILLICOTHE AND FARMINGTON.

MOZ001>031-035>038-043-044-053-054-250600-
...NORTHERN AND WESTERN MISSOURI...

CITY           SKY/WX    TMP DP  RH WIND       PRES   REMARKS
KANSAS CTY INT CLOUDY    67  65  93 S8        29.99F
KANSAS C DTWN  CLOUDY    71  64  78 SW6       29.99F
LEE`S SUMMIT   CLOUDY    69  64  84 SW9       30.01S
ST JOSEPH      CLOUDY    72  64  76 S10       29.97F
CHILLICOTHE      N/A     73  65  75 S6        29.99F
KIRKSVILLE     MOCLDY    72  67  84 S3        30.01F

$$
MOZ066>068-077>081-088>096-101>105-250600-
...SOUTHWEST MISSOURI...

CITY           SKY/WX    TMP DP  RH WIND       PRES   REMARKS
SPRINGFIELD    PTCLDY    71  67  87 S5        30.04R
JOPLIN         CLOUDY    71  66  84 CALM      30.04R
BRANSON        CLOUDY    70  63  78 CALM      30.06F

$$
MOZ032>034-039>042-045>050-055>058-069>072-250600-
...CENTRAL MISSOURI...

CITY           SKY/WX    TMP DP  RH WIND       PRES   REMARKS
COLUMBIA       MOCLDY    72  67  84 S6        30.01F
JEFFERSON CITY PTCLDY    73  69  87 E7        30.00F
ROLLA          CLOUDY    72  63  73 SW8       30.05S
SEDALIA        CLOUDY    71  67  87 SW5       30.02F
WHITEMAN AFB   CLOUDY    69  64  86 S3        29.97S
WARRENSBURG      N/A     68  63  83 CALM      30.00S
OSAGE BEACH    HAZE      72  66  83 S5        30.03F VSB 1

$$
MOZ051-052-059>065-250600-
...EAST CENTRAL MISSOURI...

CITY           SKY/WX    TMP DP  RH WIND       PRES   REMARKS
ST LOUIS INTL  PTCLDY    79  61  53 S6        30.03F
SPIRIT OF STL  PTCLDY    69  67  93 CALM      30.01F
ST CHARLES     CLEAR     71  67  87 CALM      30.01F

$$
MOZ072>076-082>087-097>100-106>115-250600-
...SOUTH CENTRAL AND SOUTHEAST MISSOURI...

CITY           SKY/WX    TMP DP  RH WIND       PRES   REMARKS
CAPE GIRARDEAU FAIR      73  65  75 E5        30.03S
FARMINGTON     CLOUDY    68  65  90 CALM      30.06F
POPLAR BLUFF   FAIR      74  72  93 CALM      30.02F
WEST PLAINS    CLEAR     70  67  90 S5        30.07F

$$




USA.gov is the U.S. government's official web portal to all federal, state and local government web resources and services.